Eureka, NV

8:03 PM PDT on March 25, 2017 (GMT -0700)
Eureka

Weather History for KP68 - October, 2012

Change the Weather History Date:

Friday, October 26, 2012

  Actual Average Record
Temperature  
Mean Temperature 34 °F 42 °F  
Max Temperature 54 °F 59 °F 75 °F (2008)
Min Temperature 14 °F 26 °F 8 °F (2011)
Degree Days  
Heating Degree Days 31 23  
Month to date heating degree days 393 465  
Since 1 July heating degree days 476 729  
Cooling Degree Days 0 0  
Month to date cooling degree days 0 0  
Year to date cooling degree days 529 288  
Moisture  
Dew Point 17 °F    
Average Humidity 54    
Maximum Humidity 88    
Minimum Humidity 20    
Precipitation  
Precipitation 0.00 in 0.03 in 0.59 in (2000)
Month to date precipitation 0.20 0.59  
Year to date precipitation 5.67 7.46  
Sea Level Pressure  
Sea Level Pressure 30.34 in    
Wind  
Wind Speed 4 mph (South)    
Max Wind Speed 12 mph    
Max Gust Speed 12 mph    
T = Trace of Precipitation, MM = Missing Value Source: NWS Daily Summary

Daily Weather History Graph

Daily Weather History Graph

Search for Another Location

Airport or City:

Trip Planner

Search our weather history database for the weather conditions in past years. The results will help you decide how hot, cold, wet, or windy it might be!

Date:

Astronomy

Oct. 26, 2012 Rise Set
Actual Time 7:06 AM PDT 5:48 PM PDT
Civil Twilight 6:38 AM PDT 6:16 PM PDT
Nautical Twilight 6:06 AM PDT 6:47 PM PDT
Astronomical Twilight 5:35 AM PDT 7:19 PM PDT
Moon 4:06 PM PDT 4:07 AM PDT
Length of Visible Light 11h 37m
Length of Day
10h 42m
Waxing Gibbous, 91% of the Moon is Illuminated
Oct 26
Waxing Gibbous
Oct 29
Full
Nov 6
Last Quarter
Nov 13
New
Nov 20
First Quarter

Hourly Weather History & Observations

Time (PDT) Temp. Windchill Dew Point Humidity Pressure Visibility Wind Dir Wind Speed Gust Speed Precip Events Conditions
12:53 AM 19.0 °F 10.0 °F 15.1 °F 85% 30.43 in - SSW 6.9 mph - N/A   Unknown
1:53 AM 19.0 °F 12.3 °F 15.1 °F 85% 30.42 in - SE 4.6 mph - N/A   Unknown
2:53 AM 17.1 °F - 12.0 °F 81% 30.43 in - Calm Calm - N/A   Unknown
3:53 AM 16.0 °F 7.4 °F 12.0 °F 84% 30.44 in - SSW 5.8 mph - N/A   Unknown
4:53 AM 18.0 °F 11.1 °F 12.9 °F 81% 30.42 in - South 4.6 mph - N/A   Unknown
5:53 AM 15.1 °F 6.4 °F 10.9 °F 84% 30.46 in - South 5.8 mph - N/A   Unknown
6:53 AM 16.0 °F 6.3 °F 12.0 °F 84% 30.49 in - SSW 6.9 mph - N/A   Unknown
7:53 AM 19.0 °F 11.1 °F 14.0 °F 81% 30.48 in - SSW 5.8 mph - N/A   Unknown
8:53 AM 27.0 °F 23.0 °F 19.9 °F 75% 30.43 in - SSW 3.5 mph - N/A   Unknown
9:53 AM 32.0 °F 28.7 °F 21.9 °F 66% 30.42 in - South 3.5 mph - N/A   Unknown
10:53 AM 36.0 °F 32.1 °F 23.0 °F 59% 30.40 in - NE 4.6 mph - N/A   Unknown
11:53 AM 39.9 °F - 19.9 °F 45% 30.37 in - Calm Calm - N/A   Unknown
12:53 PM 44.1 °F - 21.9 °F 42% 30.31 in - Calm Calm - N/A   Unknown
1:53 PM 46.9 °F - 21.0 °F 36% 30.26 in - Calm Calm - N/A   Unknown
2:53 PM 50.0 °F - 16.0 °F 26% 30.23 in - SW 3.5 mph - N/A   Unknown
3:53 PM 53.1 °F - 14.0 °F 21% 30.21 in - WNW 3.5 mph - N/A   Unknown
4:53 PM 52.0 °F - 14.0 °F 22% 30.19 in - Calm Calm - N/A   Unknown
5:53 PM 45.0 °F 43.5 °F 21.0 °F 39% 30.23 in - ESE 3.5 mph - N/A   Unknown
6:53 PM 37.9 °F 30.9 °F 21.0 °F 51% 30.27 in - South 10.4 mph - N/A   Unknown
7:53 PM 36.0 °F 30.3 °F 19.9 °F 52% 30.26 in - SSE 6.9 mph - N/A   Unknown
8:53 PM 35.1 °F 30.1 °F 19.0 °F 52% 30.24 in - South 5.8 mph - N/A   Unknown
9:53 PM 34.0 °F 28.0 °F 19.0 °F 54% 30.22 in - South 6.9 mph - N/A   Unknown
10:53 PM 30.9 °F - 19.0 °F 61% 30.22 in - Calm Calm - N/A   Unknown
11:53 PM 28.0 °F 22.8 °F 19.0 °F 69% 30.21 in - South 4.6 mph - N/A   Unknown